Location: Wien
(48.2082°N, 16.3738°E)
Time: 20:20:41
(UTC+02:00)

Transit 4A - Pass Details

Date: 27 February 2024
Orbit: 871 x 972 km, 66.8° (Epoch: 20 April)

Event Time Altitude Azimuth Distance (km) Brightness Sun altitude
Exits shadow 01:51:47 17° 27° (NNE) 2,133 10.2 -44.7°
Drops below altitude 10° 01:53:04 10° 30° (NNE) 2,588 10.8 -44.6°
Sets 01:55:35 0° 34° (NE) 3,518 11.7 -44.3°
